Torna al catalogo

STARLINK-33797

AttivoComunicazioniVLEO
NORAD 63448·PAYLOAD·🇺🇸 United States

Lanciato Apr 4, 2025 da Vandenberg Space Force Base

Loading…

Prossimi Passaggi (prossime 24 ore)

TLE

AggiornatoSource: CelesTrak SupGP

Epoca: Sep 15, 2026, 03:14 UTC

1 63448C 25069R   26258.13520833  .00065637  00000+0  19395-2 0  2588
2 63448  53.1589 335.0270 0001128  94.8153 320.2277 15.34354943    15

Traccia STARLINK-33797 in tempo reale con AllMySat

Download on the App Store